Fort Benning, AL

8:51 PM CST on November 22, 2017 (GMT -0600)
Lawson Army Air Field

Weather History for KLSF - October, 2013

Change the Weather History Date:

Sunday, October 6, 2013

  Actual Average Record
Temperature  
Mean Temperature 73 °F -  
Max Temperature 85 °F 77 °F 87 °F (1997)
Min Temperature 60 °F 56 °F 41 °F (2010)
Cooling Degree Days 8    
Growing Degree Days 23 (Base 50)    
Moisture  
Dew Point 67 °F    
Average Humidity 95    
Maximum Humidity 100    
Minimum Humidity 62    
Precipitation  
Precipitation 0.03 in - - ()
Sea Level Pressure  
Sea Level Pressure 29.95 in    
Wind  
Wind Speed 1 mph (South)    
Max Wind Speed 13 mph    
Max Gust Speed -    
Visibility 6 miles    
Events Fog , Rain    
Averages and records for this station are not official NWS values.
T = Trace of Precipitation, MM = Missing Value Source: NWS Daily Summary

Daily Weather History Graph

Daily Weather History Graph

Search for Another Location

Airport or City:

Trip Planner

Search our weather history database for the weather conditions in past years. The results will help you decide how hot, cold, wet, or windy it might be!

Date:

Astronomy

Oct. 06, 2013 Rise Set
Actual Time 7:37 AM EDT 7:17 PM EDT
Civil Twilight 7:12 AM EDT 7:42 PM EDT
Nautical Twilight 6:44 AM EDT 8:10 PM EDT
Astronomical Twilight 6:16 AM EDT 8:39 PM EDT
Moon 9:13 AM EDT (10/6) 8:25 PM EDT (10/6)
Length of Visible Light 12h 29m
Length of Day
11h 40m
Waxing Crescent, 3% of the Moon is Illuminated
Oct 6
Waxing Crescent
Oct 11
First Quarter
Oct 18
Full
Oct 26
Last Quarter
Nov 3
New

Hourly Weather History & Observations

Time (EDT) Temp. Heat Index Dew Point Humidity Pressure Visibility Wind Dir Wind Speed Gust Speed Precip Events Conditions
12:08 AM 66.2 °F - 66.2 °F 100% 30.02 in 2.5 mi Calm Calm - N/A   Clear
12:13 AM 66.2 °F - 66.2 °F 100% 30.01 in 0.8 mi Calm Calm - N/A   Clear
12:18 AM 66.2 °F - 66.2 °F 100% 30.01 in 0.5 mi Calm Calm - N/A Fog Fog
12:23 AM 64.4 °F - 64.4 °F 100% 30.01 in 0.8 mi Calm Calm - N/A   Clear
12:28 AM 64.4 °F - 64.4 °F 100% 30.01 in 1.8 mi Calm Calm - N/A   Clear
12:33 AM 64.4 °F - 64.4 °F 100% 30.01 in 8.0 mi Calm Calm - N/A   Clear
12:38 AM 64.4 °F - 64.4 °F 100% 30.01 in 10.0 mi Calm Calm - N/A   Clear
12:48 AM 64.4 °F - 64.4 °F 100% 30.01 in 5.0 mi Calm Calm - N/A   Clear
12:58 AM 63.9 °F - 63.9 °F 100% 30.01 in 8.0 mi Calm Calm - N/A   Clear
1:08 AM 62.6 °F - 62.6 °F 100% 30.00 in 2.5 mi Calm Calm - N/A   Clear
1:13 AM 62.6 °F - 62.6 °F 100% 30.00 in 1.2 mi Calm Calm - N/A   Clear
1:28 AM 64.4 °F - 64.4 °F 100% 30.00 in 1.5 mi Calm Calm - N/A   Clear
1:33 AM 64.4 °F - 64.4 °F 100% 30.00 in 3.0 mi Calm Calm - N/A   Clear
1:38 AM 64.4 °F - 64.4 °F 100% 30.00 in 1.2 mi Calm Calm - N/A   Clear
1:48 AM 64.4 °F - 64.4 °F 100% 30.00 in 1.0 mi Calm Calm - N/A   Clear
1:53 AM 64.4 °F - 64.4 °F 100% 29.99 in 0.5 mi Calm Calm - N/A Fog Fog
1:58 AM 63.9 °F - 63.9 °F 100% 29.99 in 0.5 mi Calm Calm - N/A Fog Fog
2:02 AM 64.4 °F - 64.4 °F 100% 29.99 in 0.5 mi Calm Calm - N/A Fog , Rain Light Rain
2:07 AM 64.4 °F - 64.4 °F 100% 29.99 in 0.2 mi Calm Calm - N/A Fog , Rain Light Rain
2:12 AM 64.4 °F - 64.4 °F 100% 29.99 in 0.5 mi Calm Calm - N/A Fog , Rain Light Rain
2:13 AM 64.4 °F - 64.4 °F 100% 29.99 in 0.5 mi Calm Calm - N/A Fog Fog
2:18 AM 64.4 °F - 64.4 °F 100% 29.99 in 1.0 mi Calm Calm - N/A   Clear
2:23 AM 64.4 °F - 64.4 °F 100% 29.99 in 1.5 mi Calm Calm - N/A   Clear
2:28 AM 64.4 °F - 64.4 °F 100% 29.99 in 9.0 mi NW 2.3 mph - N/A   Clear
2:33 AM 62.6 °F - 62.6 °F 100% 29.99 in 10.0 mi NW 2.3 mph - N/A   Clear
2:43 AM 62.6 °F - 62.6 °F 100% 29.98 in 8.0 mi Calm Calm - N/A   Clear
2:53 AM 62.6 °F - 62.6 °F 100% 29.98 in 1.5 mi Calm Calm - N/A   Clear
2:58 AM 62.6 °F - 62.6 °F 100% 29.99 in 0.8 mi Variable 1.2 mph - 0.00 in   Clear
3:08 AM 62.6 °F - 62.6 °F 100% 29.98 in 1.0 mi WSW 1.2 mph - N/A   Clear
3:13 AM 62.6 °F - 62.6 °F 100% 29.98 in 1.2 mi West 1.2 mph - N/A   Clear
3:18 AM 62.6 °F - 62.6 °F 100% 29.98 in 1.5 mi West 1.2 mph - N/A   Clear
3:23 AM 62.6 °F - 62.6 °F 100% 29.98 in 2.0 mi Calm Calm - N/A   Clear
3:28 AM 62.6 °F - 62.6 °F 100% 29.97 in 1.0 mi Calm Calm - N/A   Clear
3:33 AM 62.6 °F - 62.6 °F 100% 29.97 in 0.5 mi Calm Calm - N/A Fog Fog
3:48 AM 62.6 °F - 62.6 °F 100% 29.97 in 0.8 mi Calm Calm - N/A   Clear
3:53 AM 62.6 °F - 62.6 °F 100% 29.97 in 4.0 mi North 2.3 mph - N/A   Clear
3:58 AM 62.6 °F - 62.6 °F 100% 29.98 in 9.0 mi North 1.2 mph - N/A   Clear
4:23 AM 62.6 °F - 62.6 °F 100% 29.97 in 9.0 mi West 2.3 mph - N/A   Clear
4:38 AM 60.8 °F - 60.8 °F 100% 29.97 in 10.0 mi NW 1.2 mph - N/A   Clear
4:58 AM 61.3 °F - 61.3 °F 100% 29.98 in 10.0 mi NNW 2.3 mph - N/A   Clear
5:13 AM 62.6 °F - 62.6 °F 100% 29.97 in 9.0 mi Calm Calm - N/A   Clear
5:23 AM 62.6 °F - 62.6 °F 100% 29.97 in 10.0 mi WNW 1.2 mph - N/A   Clear
5:33 AM 60.8 °F - 60.8 °F 100% 29.97 in 6.0 mi Calm Calm - N/A   Clear
5:38 AM 60.8 °F - 60.8 °F 100% 29.97 in 2.0 mi Calm Calm - N/A   Clear
5:43 AM 62.6 °F - 62.6 °F 100% 29.97 in 1.0 mi Calm Calm - N/A   Clear
5:48 AM 62.6 °F - 62.6 °F 100% 29.97 in 0.8 mi Calm Calm - N/A   Clear
5:58 AM 62.6 °F - 62.6 °F 100% 29.98 in 0.8 mi Calm Calm - N/A   Clear
6:03 AM 62.6 °F - 62.6 °F 100% 29.97 in 1.0 mi Calm Calm - N/A   Clear
6:08 AM 62.6 °F - 62.6 °F 100% 29.97 in 4.0 mi NW 2.3 mph - N/A   Clear
6:13 AM 62.6 °F - 62.6 °F 100% 29.97 in 10.0 mi NNW 3.5 mph - N/A   Clear
6:58 AM 62.2 °F - 62.2 °F 100% 29.99 in 10.0 mi NNW 3.5 mph - N/A   Clear
7:58 AM 62.1 °F - 62.1 °F 100% 30.00 in 10.0 mi NNW 2.3 mph - N/A   Clear
8:58 AM 66.4 °F - 66.4 °F 100% 29.99 in 10.0 mi North 2.3 mph - N/A   Clear
9:58 AM 72.5 °F - 72.5 °F 100% 29.98 in 10.0 mi SSE 5.8 mph - N/A   Clear
10:58 AM 79.5 °F - 71.2 °F 76% 29.98 in 10.0 mi SSE 6.9 mph - N/A   Clear
11:58 AM 83.3 °F 87.9 °F 71.1 °F 66% 29.96 in 10.0 mi SE 12.7 mph - N/A   Clear
12:58 PM 84.6 °F 89.4 °F 70.9 °F 63% 29.94 in 10.0 mi SE 11.5 mph - N/A   Mostly Cloudy
1:03 PM 86.0 °F 91.8 °F 71.6 °F 62% 29.93 in 10.0 mi ESE 10.4 mph - N/A   Mostly Cloudy
1:08 PM 84.2 °F 89.6 °F 71.6 °F 66% 29.92 in 10.0 mi SE 8.1 mph - N/A   Scattered Clouds
1:58 PM 83.8 °F 88.3 °F 70.3 °F 64% 29.91 in 10.0 mi SSE 10.4 mph - N/A   Mostly Cloudy
2:23 PM 82.4 °F 87.2 °F 71.6 °F 70% 29.90 in 10.0 mi SSE 9.2 mph - N/A Rain Light Rain
2:42 PM 78.8 °F - 71.6 °F 78% 29.88 in 10.0 mi SE 6.9 mph - N/A   Overcast
2:58 PM 78.8 °F - 71.8 °F 79% 29.88 in 10.0 mi SSE 6.9 mph - 0.00 in   Mostly Cloudy
3:58 PM 81.3 °F 85.4 °F 71.2 °F 71% 29.88 in 10.0 mi SSW 8.1 mph - N/A   Mostly Cloudy
4:51 PM 80.6 °F 84.6 °F 71.6 °F 74% 29.86 in 10.0 mi SW 5.8 mph - N/A   Light Drizzle
4:58 PM 80.1 °F 83.7 °F 71.6 °F 75% 29.87 in 10.0 mi SW 4.6 mph - 0.00 in   Light Drizzle
5:01 PM 80.6 °F 84.6 °F 71.6 °F 74% 29.86 in 10.0 mi SSW 4.6 mph - N/A   Overcast
5:06 PM 78.8 °F - 71.6 °F 78% 29.86 in 10.0 mi SW 4.6 mph - N/A   Light Drizzle
5:14 PM 78.8 °F - 71.6 °F 78% 29.86 in 10.0 mi SW 4.6 mph - N/A   Overcast
5:58 PM 77.9 °F - 72.0 °F 82% 29.87 in 10.0 mi SW 3.5 mph - 0.00 in   Overcast
6:58 PM 76.3 °F - 73.4 °F 91% 29.87 in 10.0 mi South 4.6 mph - N/A   Overcast
7:13 PM 75.2 °F - 73.4 °F 94% 29.87 in 10.0 mi SE 5.8 mph - N/A   Light Drizzle
7:57 PM 73.4 °F - 73.4 °F 100% 29.88 in 10.0 mi SSE 2.3 mph - N/A   Mostly Cloudy
7:58 PM 73.4 °F - 73.4 °F 100% 29.89 in 10.0 mi SSE 2.3 mph - 0.00 in   Mostly Cloudy
8:27 PM 73.4 °F - 73.4 °F 100% 29.87 in 10.0 mi SE 3.5 mph - N/A Rain Light Rain
8:52 PM 71.6 °F - 71.6 °F 100% 29.87 in 10.0 mi ESE 2.3 mph - N/A   Clear
8:58 PM 72.3 °F - 72.0 °F 99% 29.88 in 10.0 mi ESE 2.3 mph - 0.00 in   Clear
9:10 PM 71.6 °F - 71.6 °F 100% 29.87 in 10.0 mi ESE 2.3 mph - N/A Rain Light Rain
9:45 PM 71.6 °F - 71.6 °F 100% 29.87 in 10.0 mi South 2.3 mph - N/A   Clear
9:58 PM 71.2 °F - 71.2 °F 100% 29.88 in 10.0 mi Calm Calm - 0.00 in   Partly Cloudy
10:11 PM 71.6 °F - 71.6 °F 100% 29.87 in 7.0 mi SSE 2.3 mph - N/A   Light Drizzle
10:26 PM 71.6 °F - 71.6 °F 100% 29.87 in 10.0 mi SSE 3.5 mph - N/A   Light Drizzle
10:58 PM 71.1 °F - 71.1 °F 100% 29.87 in 10.0 mi Calm Calm - 0.01 in   Light Drizzle
11:23 PM 69.8 °F - 69.8 °F 100% 29.87 in 9.0 mi SSW 2.3 mph - N/A Rain Light Rain
11:58 PM 70.7 °F - 70.7 °F 100% 29.86 in 3.0 mi SE 3.5 mph - 0.02 in Rain Light Rain